Home > Weather > Gunsan > Past weeks

Flag for South Korea Weather for the Past 2 Weeks in Gunsan, South Korea

Now
58 °F

Fog.


Feels Like: 57 °F
Forecast: 28 / 42 °F
Wind: 7 mph from East

Location: Kunsan Ab

Current Time: Feb 13, 2016 at 12:48:00 PM

Latest Report: Feb 13, 2016 at 10:58 AM


Visibility: 6 mi

Pressure: 29.82 "Hg

Humidity: 100%

Dew point: 58 °F

Location of GunsanLocation

Historic Weather in Gunsan — Graph

°F

Gunsan Temperature Yesterday

Maximum temperature yesterday: 57 °F (at 11:59 AM)
Minimum temperature yesterday: 50 °F (at 5:03 AM)
Average temperature yesterday: 54 °F

High & Low Weather Summary for the Past Weeks

 TemperatureHumidityPressure
High64 °F (Feb 11, 2:58 PM)100% (Jan 29, 3:59 PM)30.47 "Hg (Jan 29, 3:59 PM)
Low20 °F (Feb 2, 7:58 AM)20% (Feb 10, 2:58 PM)29.82 "Hg (Feb 13, 10:58 AM)
Average36 °F79%30.25 "Hg
* Reported Jan 29 10:58 AM — Feb 13 10:58 AM, Gunsan, Weather by CustomWeather, © 2016

Note: Actual official high and low records may vary slightly from our data, if they occured in-between our weather recording intervals... More about our weather records

Advertising

Gunsan Weather History for the Previous 24 Hours

 ConditionsComfort  
Time TempWeatherWind HumidityBarometerVisibility
10:58 AM
Sat, Feb 13
58 °FFog.7 mph100%29.82 "Hg6 mi
9:58 AM56 °FFog.8 mph100%29.85 "Hg4 mi
8:58 AM56 °FFog.7 mph100%29.87 "Hg5 mi
8:04 AM55 °FFog.7 mph100%29.87 "Hg2 mi
7:02 AM55 °FFog.7 mph100%29.87 "Hg2 mi
5:58 AM55 °FFog.7 mph100%29.87 "Hg5 mi
4:58 AM55 °FFog.8 mph100%29.89 "Hg4 mi
4:03 AM55 °FFog.6 mph100%29.90 "Hg3 mi
3:58 AM55 °FFog.6 mph100%29.91 "Hg3 mi
2:58 AM55 °FFog.5 mph100%29.92 "Hg3 mi
11:01 PM
Fri, Feb 12
55 °FLight rain. Fog.5 mph100%29.96 "Hg2 mi
9:59 PM55 °FFog.3 mph100%29.97 "Hg2 mi
9:58 PM55 °FFog.3 mph100%29.98 "Hg2 mi
9:01 PM55 °FLight rain. Fog.6 mph100%29.98 "Hg1 mi
7:58 PM55 °FFog.5 mph100%30.00 "Hg1 mi
7:00 PM54 °FFog.2 mph100%29.99 "Hg1 mi
6:58 PM54 °FFog.2 mph100%30.00 "Hg1 mi
6:04 PM55 °FFog.2 mph100%29.98 "Hg2 mi
5:58 PM55 °FFog.2 mph100%29.99 "Hg3 mi
5:04 PM55 °FDrizzle. Fog.No wind100%29.97 "Hg1 mi
4:58 PM55 °FDrizzle. Fog.2 mph100%29.98 "Hg1 mi
3:58 PM54 °FDrizzle. Fog.2 mph100%29.97 "Hg3 mi
3:03 PM54 °FLight rain. Fog.3 mph100%29.97 "Hg2 mi
2:04 PM54 °FLight rain. Fog.2 mph100%29.98 "Hg1 mi
2:01 PM54 °FLight rain. Fog.1 mph100%29.98 "Hg1 mi
12:58 PM54 °FLight rain. Fog.3 mph100%30.01 "Hg1 mi
12:50 PM54 °FLight rain. Fog.3 mph100%30.00 "Hg1 mi
Weather by CustomWeather, © 2016

See weather overviewHow to use our weather pages